Location: Ellerstadt
(49.4644°N, 8.2615°E)
Time: 07:05:28
(UTC+00:00)

SPOT 3 Rocket - Pass Details

Date: 18 June 2021
Orbit: 779 x 794 km, 98.7° (Epoch: 03 August)

Event Time Altitude Azimuth Distance (km) Brightness Sun altitude
Exits shadow 20:30:16 - 179° (S) 3,185 6.2 -7.1°
Reaches altitude 10° 20:32:27 10° 184° (S) 2,337 5.6 -7.3°
Maximum altitude 20:37:28 51° 260° (W) 987 4.3 -7.8°
Drops below altitude 10° 20:42:33 10° 336° (NNW) 2,364 7.5 -8.3°
Sets 20:44:58 0° 342° (NNW) 3,300 8.4 -8.6°
